[Date Prev][Date Next][Thread Prev][Thread Next] - [Date Index][Thread Index][Author Index]

2Line ISS Keps 11-27






ISS
1 25544U 98067A   02331.73019676  .00016423  00000-0  20438-3 0  4214
2 25544  51.6379 311.7942 0013663 184.0463 171.5786 15.59997824229473




_________________________________________________________________
STOP MORE SPAM with the new MSN 8 and get 2 months FREE* 
http://join.msn.com/?page=features/junkmail

----
Via the sarex mailing list at AMSAT.ORG courtesy of AMSAT-NA.
To unsubscribe, send "unsubscribe sarex" to Majordomo@amsat.org



AMSAT Top AMSAT Home